TimeMDT,TemperatureF,Dew PointF,Humidity,Sea Level PressureIn,VisibilityMPH,Wind Direction,Wind SpeedMPH,Gust SpeedMPH,PrecipitationIn,Events,Conditions,WindDirDegrees,DateUTC
12:51 AM,64.0,43.0,46,29.42,10.0,SSE,15.0,-,N/A,,Clear,150,2011-10-06 06:51:00
1:51 AM,63.0,43.0,48,29.42,10.0,SSE,15.0,-,N/A,,Clear,150,2011-10-06 07:51:00
2:51 AM,63.0,44.1,50,29.42,10.0,SSE,18.4,-,N/A,,Clear,150,2011-10-06 08:51:00
3:51 AM,61.0,44.1,54,29.42,10.0,SSE,18.4,-,N/A,,Scattered Clouds,150,2011-10-06 09:51:00
4:51 AM,61.0,45.0,56,29.43,10.0,SE,16.1,-,N/A,,Scattered Clouds,140,2011-10-06 10:51:00
5:51 AM,61.0,46.0,58,29.42,10.0,SE,12.7,-,0.00,,Mostly Cloudy,140,2011-10-06 11:51:00
6:51 AM,59.0,46.0,62,29.42,10.0,ESE,10.4,-,N/A,,Partly Cloudy,120,2011-10-06 12:51:00
7:51 AM,60.1,46.9,62,29.42,10.0,ESE,13.8,-,N/A,,Clear,120,2011-10-06 13:51:00
8:51 AM,62.1,48.0,60,29.43,10.0,SE,15.0,20.7,N/A,,Partly Cloudy,140,2011-10-06 14:51:00
9:51 AM,63.0,48.9,60,29.42,9.0,SE,19.6,-,N/A,,Clear,140,2011-10-06 15:51:00
10:51 AM,64.0,50.0,60,29.42,10.0,SE,16.1,24.2,N/A,,Clear,140,2011-10-06 16:51:00
12:51 PM,66.9,51.1,57,29.41,10.0,SE,18.4,-,N/A,,Mostly Cloudy,130,2011-10-06 18:51:00
1:51 PM,68.0,51.1,55,29.41,8.0,SE,17.3,-,0.00,,Overcast,140,2011-10-06 19:51:00
2:51 PM,68.0,52.0,56,29.42,10.0,SSE,18.4,-,N/A,,Overcast,150,2011-10-06 20:51:00
3:51 PM,69.1,52.0,54,29.43,10.0,SSE,18.4,27.6,0.00,,Overcast,150,2011-10-06 21:51:00
4:45 PM,57.2,53.6,88,29.51,2.0,SSW,19.6,-,0.05,Rain,Heavy Rain,200,2011-10-06 22:45:00
4:51 PM,57.0,53.1,87,29.47,2.5,South,24.2,29.9,0.06,Rain,Rain,190,2011-10-06 22:51:00
5:16 PM,57.2,53.6,88,29.49,5.0,SSW,8.1,-,0.09,Rain,Light Rain,210,2011-10-06 23:16:00
5:51 PM,57.0,54.0,89,29.43,10.0,ESE,5.8,-,0.09,,Overcast,120,2011-10-06 23:51:00
6:51 PM,57.0,53.1,87,29.47,10.0,SSE,6.9,-,0.01,,Overcast,150,2011-10-07 00:51:00
7:51 PM,55.0,53.1,93,29.42,10.0,ESE,8.1,-,0.00,,Scattered Clouds,110,2011-10-07 01:51:00
8:51 PM,55.0,54.0,96,29.41,10.0,SSE,3.5,-,N/A,,Mostly Cloudy,160,2011-10-07 02:51:00
9:51 PM,55.0,53.1,93,29.42,10.0,East,3.5,-,N/A,,Overcast,80,2011-10-07 03:51:00
10:51 PM,55.9,53.1,90,29.43,10.0,SSE,13.8,-,N/A,,Overcast,150,2011-10-07 04:51:00
11:51 PM,55.9,53.1,90,29.39,10.0,South,9.2,-,0.00,,Mostly Cloudy,180,2011-10-07 05:51:00